User: anonymous   Login
Location: Syracuse
(43.0480°N, 76.1480°W)
Time: 14:52:43
(UTC-04:00)
Language:

Cosmos 1140 Rocket - Orbit

View from above orbital plane
View from above orbital plane
View from above satellite
View from above satellite

Ground track
Ground track

The orbit data is extracted from the following two-line orbital elements,

1 11574U 79089B   16240.66548914  .00000042  00000-0  21531-4 0  9999
2 11574  74.0692  40.8171 0015645  17.1606 343.0075 14.40586072934871
Epoch (UTC): 27 August 2016 15:58:18
Eccentricity: 0.0015645
inclination: 74.0692°
perigee height: 745 km
apogee height: 768 km
right ascension of ascending node: 40.8171°
argument of perigee: 17.1606°
revolutions per day: 14.40586072
mean anomaly at epoch: 343.0075°
orbit number at epoch: 93487

The dashed part of the orbit path shows where the satellite is in the earth's shadow,  

DLR